Location: Zagreb
(45.8000°N, 16.0000°E)
Time: 09:25:57
(UTC+01:00)

Vanguard 1 Rocket - Visible Passes

Search period start: 23 January 2020 00:00
Search period end: 02 February 2020 00:00
Orbit: 650 x 4226 km, 34.3° (Epoch: 22 January)

Date Brightness Start Highest point End Pass type
(mag) Time Alt. Az. Time Alt. Az. Time Alt. Az.
23 Jan 12.3 18:16:25 10° WSW 18:27:41 16° SW 18:39:48 10° SSW visible
24 Jan 12.2 16:59:49 10° W 17:14:36 24° SW 17:32:22 10° S visible
25 Jan 12.5 18:26:19 10° WSW 18:29:29 10° SW 18:32:44 10° SW visible
26 Jan 12.4 17:04:21 10° WSW 17:16:34 19° SW 17:31:00 10° S visible
28 Jan 12.6 17:10:41 10° WSW 17:18:37 13° SW 17:27:32 10° SSW visible
